{"data":{"norad_id":84292,"intl_designator":"","name":"UNKNOWN","alt_names":[],"object_type":"UNKNOWN","status":"UNKNOWN","operator":null,"country":null,"launch_date":null,"launch_site_code":null,"launch_vehicle":null,"mission":null,"orbit_class":"UNKNOWN","rcs_meters":null,"size_class":null,"mass_kg":null,"dimensions":null,"purposes":[],"wikipedia_slug":null,"has_3d_model":false,"image_url":null,"decayed_at":null,"tle_current":{"epoch":"2026-05-21T10:26:32.093088Z","epoch_age_seconds":393532,"freshness":"STALE","line1":"1 84292U          26141.43509367  .00001182  00000+0  77331-3 0  9991","line2":"2 84292  23.8686 299.1505 4545343 264.7789  43.6444  6.22645147238018","mean_motion":6.22645147,"eccentricity":0.4545343,"inclination_deg":23.8686,"raan_deg":299.1505,"arg_perigee_deg":264.7789,"mean_anomaly_deg":43.6444,"bstar":0.00077331,"rev_number":23801,"period_min":231.27137615031,"perigee_km":429.6958287113,"apogee_km":11775.573413004,"semimajor_km":12480.771620858,"source":"CELESTRAK","updated_at":"2026-05-25T13:38:11.426908Z"}}}